EW3608 Weather Reports


time (UTC)temp
F
wind
direction
speed
knots
gust
knots
rain 1hr
in
rain 24hr
in
rain mn
in
humidity
%
barometer
mb
20260905150041 74 187 0.0 1.7 0.00 0.00 0.00 43 1018.8
20260905145517 73 113 0.0 1.7 0.00 0.00 0.00 46 1018.8
20260905145005 72 103 0.0 1.7 0.00 0.00 0.00 52 1018.8
20260905144517 71 117 0.0 1.7 0.00 0.00 0.00 49 1018.8
20260905144011 70 107 0.0 1.7 0.00 0.00 0.00 54 1018.8
20260905143510 69 106 0.9 1.7 0.00 0.00 0.00 53 1018.8
20260905143025 68 108 0.0 1.7 0.00 0.00 0.00 54 1018.9
20260905142513 67 108 0.0 1.7 0.00 0.00 0.00 55 1018.9
20260905142020 66 222 0.0 1.7 0.00 0.00 0.00 58 1018.9
20260905141535 65 236 0.0 1.7 0.00 0.00 0.00 59 1018.8
20260905141007 64 240 0.9 1.7 0.00 0.00 0.00 61 1018.8
20260905140510 62 221 0.0 1.7 0.00 0.00 0.00 62 1018.7
20260905140018 62 204 0.0 1.7 0.00 0.00 0.00 63 1018.7
20260905135512 62 204 0.0 1.7 0.00 0.00 0.00 63 1018.7
20260905135018 61 204 0.0 1.7 0.00 0.00 0.00 63 1018.7
20260905134531 61 199 0.0 1.7 0.00 0.00 0.00 66 1018.7
20260905134017 60 196 0.0 1.7 0.00 0.00 0.00 66 1018.7
20260905133515 59 194 0.0 1.7 0.00 0.00 0.00 65 1018.6
20260905133010 59 194 0.0 1.7 0.00 0.00 0.00 66 1018.7
20260905132510 59 194 0.0 1.7 0.00 0.00 0.00 65 1018.7
20260905132010 59 194 0.0 1.7 0.00 0.00 0.00 64 1018.6
20260905131535 59 194 0.0 1.7 0.00 0.00 0.00 64 1018.5
20260905131014 59 194 0.0 1.7 0.00 0.00 0.00 63 1018.5
20260905130515 58 195 0.0 1.7 0.00 0.00 0.00 62 1018.4
20260905130031 58 195 0.0 1.7 0.00 0.00 0.00 63 1018.4
20260905125517 58 193 0.0 1.7 0.00 0.00 0.00 63 1018.4
20260905125009 58 192 0.0 1.7 0.00 0.00 0.00 60 1018.2
20260905124515 58 192 0.0 1.7 0.00 0.00 0.00 63 1018.1
20260905124015 58 198 0.0 1.7 0.00 0.00 0.00 64 1018.0
20260905123512 58 198 0.0 1.7 0.00 0.00 0.00 64 1018.0
20260905123037 58 208 0.0 1.7 0.00 0.00 0.00 64 1017.9
20260905122515 58 208 0.0 1.7 0.00 0.00 0.00 64 1017.9
20260905122018 58 208 0.0 1.7 0.00 0.00 0.00 64 1017.9
20260905121509 58 217 0.0 1.7 0.00 0.00 0.00 64 1017.9
20260905121006 59 213 0.0 1.7 0.00 0.00 0.00 64 1017.9
20260905120507 59 213 0.0 1.7 0.00 0.00 0.00 63 1017.9
20260905120021 59 192 0.0 1.7 0.00 0.00 0.00 63 1017.9
20260905115505 59 193 0.0 1.7 0.00 0.00 0.00 63 1018.0
20260905115003 60 182 0.0 0.9 0.00 0.00 0.00 62 1018.0
20260905114514 60 191 0.0 1.7 0.00 0.00 0.00 61 1018.0
20260905114004 60 215 0.0 1.7 0.00 0.00 0.00 61 1018.0
20260905113507 60 215 0.0 1.7 0.00 0.00 0.00 60 1018.1
20260905113014 61 215 0.0 1.7 0.00 0.00 0.00 59 1018.1
20260905112508 61 215 0.0 1.7 0.00 0.00 0.00 58 1018.1
20260905112012 62 223 0.0 1.7 0.00 0.00 0.00 56 1018.1
20260905111504 62 223 0.0 1.7 0.00 0.00 0.00 56 1018.2
20260905111003 62 223 0.0 0.9 0.00 0.00 0.00 56 1018.3
20260905110505 63 227 0.0 1.7 0.00 0.00 0.00 54 1018.2
20260905110007 63 227 0.0 1.7 0.00 0.00 0.00 54 1018.2
20260905105508 64 227 0.0 1.7 0.00 0.00 0.00 53 1018.1
20260905105008 64 227 0.0 1.7 0.00 0.00 0.00 53 1018.0
20260905104518 65 350 0.0 2.6 0.00 0.00 0.00 52 1018.0
20260905104008 65 350 0.9 2.6 0.00 0.00 0.00 51 1018.0
20260905103504 65 291 0.0 1.7 0.00 0.00 0.00 49 1017.8
20260905103006 65 286 0.0 1.7 0.00 0.00 0.00 49 1017.8
20260905102504 66 288 0.0 1.7 0.00 0.00 0.00 48 1017.8
20260905102003 66 227 0.0 1.7 0.00 0.00 0.00 47 1017.8
20260905101514 66 264 0.0 1.7 0.00 0.00 0.00 47 1017.8
20260905101010 66 344 0.0 3.5 0.00 0.00 0.00 46 1017.7
20260905100510 66 252 0.9 3.5 0.00 0.00 0.00 45 1017.7
20260905100021 65 181 0.9 5.2 0.00 0.00 0.00 48 1017.7
20260905095503 64 198 0.9 5.2 0.00 0.00 0.00 50 1017.5
20260905095007 62 229 0.9 3.5 0.00 0.00 0.00 53 1017.5
20260905094506 61 188 0.9 1.7 0.00 0.00 0.00 55 1017.6
20260905094007 62 132 0.0 1.7 0.00 0.00 0.00 55 1017.5
20260905093509 62 118 0.0 1.7 0.00 0.00 0.00 55 1017.4
20260905093018 62 202 0.0 0.9 0.00 0.00 0.00 54 1017.3
20260905092511 62 203 0.0 1.7 0.00 0.00 0.00 54 1017.3
20260905092016 62 198 0.0 1.7 0.00 0.00 0.00 54 1017.2
20260905091506 62 170 0.0 1.7 0.00 0.00 0.00 53 1017.3
20260905091004 63 170 0.0 1.7 0.00 0.00 0.00 53 1017.3
20260905090012 63 185 0.0 1.7 0.00 0.00 0.00 52 1017.2
20260905085510 63 185 0.0 1.7 0.00 0.00 0.00 51 1017.1
20260905085009 63 183 0.0 1.7 0.00 0.00 0.00 52 1017.2
20260905084519 64 183 0.0 1.7 0.00 0.00 0.00 51 1017.1
20260905084012 64 183 0.0 1.7 0.00 0.00 0.00 51 1017.1
20260905083503 64 183 0.0 1.7 0.00 0.00 0.00 49 1017.1
20260905083009 64 183 0.0 1.7 0.00 0.00 0.00 49 1017.2
20260905082504 65 183 0.0 1.7 0.00 0.00 0.00 49 1017.2
20260905082009 65 186 0.0 1.7 0.00 0.00 0.00 49 1017.1
20260905081517 65 178 0.0 1.7 0.00 0.00 0.00 47 1017.1
20260905081009 65 159 0.0 1.7 0.00 0.00 0.00 47 1017.1
20260905080513 65 175 0.0 1.7 0.00 0.00 0.00 49 1017.1
20260905080023 65 174 0.0 1.7 0.00 0.00 0.00 48 1017.1
20260905075503 65 187 0.0 1.7 0.00 0.00 0.00 49 1017.1
20260905075004 65 169 0.0 1.7 0.00 0.00 0.00 49 1017.1
20260905074509 65 180 0.0 1.7 0.00 0.00 0.00 49 1017.1
20260905074008 66 108 0.0 1.7 0.00 0.00 0.00 49 1017.2
20260905073508 66 121 0.9 1.7 0.00 0.00 0.00 49 1017.1
20260905073023 66 191 0.9 2.6 0.00 0.00 0.00 47 1017.0
20260905072515 65 257 0.9 3.5 0.00 0.00 0.00 48 1017.0
20260905072011 65 236 0.0 3.5 0.00 0.00 0.00 49 1016.9
20260905071506 65 269 0.9 1.7 0.00 0.00 0.00 49 1017.0
20260905071003 65 219 0.0 1.7 0.00 0.00 0.00 50 1017.1
20260905070506 65 128 0.0 1.7 0.00 0.00 0.00 50 1017.1
20260905070016 65 123 0.0 1.7 0.00 0.00 0.00 49 1017.1
20260905065510 65 225 0.0 1.7 0.00 0.00 0.00 49 1017.2
20260905065014 65 232 0.0 1.7 0.00 0.00 0.00 48 1017.1
20260905064524 65 245 0.0 1.7 0.00 0.00 0.00 47 1017.1
20260905064012 65 213 0.0 1.7 0.00 0.00 0.00 48 1017.1
20260905063504 65 179 0.0 1.7 0.00 0.00 0.00 49 1017.2
20260905063008 65 198 0.0 1.7 0.00 0.00 0.00 49 1017.1
20260905062507 66 172 0.0 1.7 0.00 0.00 0.00 50 1017.1
20260905062007 66 164 0.0 1.7 0.00 0.00 0.00 49 1017.1
20260905061530 66 171 0.0 1.7 0.00 0.00 0.00 49 1017.0
20260905061011 67 171 0.0 1.7 0.00 0.00 0.00 48 1016.9
20260905060514 67 162 0.0 1.7 0.00 0.00 0.00 47 1016.9
20260905060046 68 157 0.0 1.7 0.00 0.00 0.00 47 1017.0
20260905055504 68 157 0.0 1.7 0.00 0.00 0.00 46 1016.9
20260905055006 69 157 0.0 1.7 0.00 0.00 0.00 46 1016.9
20260905054521 69 157 0.0 1.7 0.00 0.00 0.00 45 1017.1
20260905054008 70 157 0.0 1.7 0.00 0.00 0.00 44 1017.1
20260905053512 71 157 0.0 1.7 0.00 0.00 0.00 43 1017.0
20260905053028 71 157 0.0 1.7 0.00 0.00 0.00 41 1017.0
20260905052511 72 163 0.0 1.7 0.00 0.00 0.00 39 1017.0
20260905052015 72 239 0.0 1.7 0.00 0.00 0.00 38 1016.9
20260905051525 72 255 0.0 1.7 0.00 0.00 0.00 36 1016.9
20260905051005 72 246 0.0 1.7 0.00 0.00 0.00 36 1016.9
20260905050509 72 289 0.0 1.7 0.00 0.00 0.00 36 1017.0
20260905050019 72 290 0.0 1.7 0.00 0.00 0.00 37 1017.0
20260905045516 72 275 0.0 1.7 0.00 0.00 0.00 37 1017.1
20260905045014 72 329 0.0 1.7 0.00 0.00 0.00 37 1017.1
20260905044527 72 319 0.0 1.7 0.00 0.00 0.00 37 1017.1
20260905044014 73 257 0.0 1.7 0.00 0.00 0.00 37 1017.0
20260905043509 73 252 0.0 0.9 0.00 0.00 0.00 38 1016.9
20260905043014 73 250 0.0 1.7 0.00 0.00 0.00 36 1016.9
20260905042509 74 240 0.0 1.7 0.00 0.00 0.00 36 1016.9
20260905042010 74 240 0.0 1.7 0.00 0.00 0.00 36 1016.9
20260905041527 74 268 0.0 1.7 0.00 0.00 0.00 37 1016.9
20260905041013 74 269 0.0 1.7 0.00 0.00 0.00 36 1017.0
20260905040513 75 269 0.0 1.7 0.00 0.00 0.00 37 1017.1
20260905040030 75 267 0.0 1.7 0.00 0.00 0.00 36 1017.1
20260905035506 75 337 0.0 1.7 0.00 0.00 0.00 37 1017.2
20260905035006 76 335 0.0 1.7 0.00 0.00 0.00 34 1017.1
20260905034516 76 335 0.0 1.7 0.00 0.00 0.00 36 1017.2
20260905034010 76 335 0.0 0.0 0.00 0.00 0.00 34 1017.2
20260905033511 77 335 0.0 1.7 0.00 0.00 0.00 35 1017.2
20260905033026 78 335 0.0 1.7 0.00 0.00 0.00 34 1017.2
20260905032513 78 67 0.0 1.7 0.00 0.00 0.00 32 1017.1
20260905032013 79 65 0.0 1.7 0.00 0.00 0.00 34 1017.1
20260905031515 80 67 0.0 1.7 0.00 0.00 0.00 32 1017.1
20260905031010 80 316 0.0 3.5 0.00 0.00 0.00 31 1017.0
20260905030510 80 300 0.9 3.5 0.00 0.00 0.00 30 1016.9
20260905030021 79 343 0.9 3.5 0.00 0.00 0.00 31 1016.9
20260905025511 79 9 0.0 1.7 0.00 0.00 0.00 31 1016.9
20260905025016 79 9 0.0 0.9 0.00 0.00 0.00 32 1016.9
20260905024553 79 9 0.0 1.7 0.00 0.00 0.00 34 1016.8
20260905024013 79 5 0.0 1.7 0.00 0.00 0.00 34 1016.7
20260905023508 79 110 0.0 1.7 0.00 0.00 0.00 36 1016.6
20260905023019 78 352 0.0 1.7 0.00 0.00 0.00 35 1016.4
20260905022508 78 212 0.0 1.7 0.00 0.00 0.00 36 1016.3
20260905022012 78 243 0.0 1.7 0.00 0.00 0.00 35 1016.3
20260905021528 78 109 0.0 1.7 0.00 0.00 0.00 37 1016.2
20260905021013 78 269 0.0 1.7 0.00 0.00 0.00 35 1016.1
20260905020514 78 259 0.0 1.7 0.00 0.00 0.00 35 1016.1
20260905020033 78 110 0.0 1.7 0.00 0.00 0.00 37 1016.1
20260905015507 79 340 0.0 1.7 0.00 0.00 0.00 36 1015.9
20260905015008 79 232 0.9 1.7 0.00 0.00 0.00 35 1015.9
20260905014518 80 119 0.0 1.7 0.00 0.00 0.00 34 1015.9
20260905014015 81 119 0.0 1.7 0.00 0.00 0.00 34 1015.8
20260905013515 81 119 0.0 1.7 0.00 0.00 0.00 33 1015.7
20260905013027 82 119 0.0 0.0 0.00 0.00 0.00 32 1015.7
20260905012517 83 119 0.0 0.9 0.00 0.00 0.00 31 1015.7
20260905012017 83 119 0.0 0.9 0.00 0.00 0.00 30 1015.6
20260905011512 84 119 0.0 0.9 0.00 0.00 0.00 30 1015.6
20260905011009 85 119 0.0 0.0 0.00 0.00 0.00 30 1015.6
20260905010512 85 119 0.0 0.0 0.00 0.00 0.00 29 1015.6
20260905010023 86 119 0.0 0.0 0.00 0.00 0.00 28 1015.6
20260905005515 86 119 0.0 1.7 0.00 0.00 0.00 27 1015.5
20260905005014 87 119 0.0 1.7 0.00 0.00 0.00 27 1015.5
20260905004532 87 119 0.0 1.7 0.00 0.00 0.00 26 1015.5
20260905004016 88 122 0.0 1.7 0.00 0.00 0.00 26 1015.5
20260905003508 88 111 0.0 1.7 0.00 0.00 0.00 25 1015.5
20260905003018 89 95 0.0 1.7 0.00 0.00 0.00 24 1015.5
20260905002503 89 84 0.0 2.6 0.00 0.00 0.00 24 1015.5
20260905002003 90 100 0.0 2.6 0.00 0.00 0.00 23 1015.4
20260905001504 90 92 0.0 2.6 0.00 0.00 0.00 22 1015.4
20260905001004 91 146 0.0 2.6 0.00 0.00 0.00 23 1015.4
20260905000504 91 92 0.9 4.3 0.00 0.00 0.00 22 1015.4
20260905000008 92 85 0.9 6.1 0.00 0.00 0.00 21 1015.4
20260904235510 92 65 1.7 6.1 0.00 0.00 0.00 20 1015.3
20260904235012 92 194 0.0 2.6 0.00 0.00 0.00 17 1015.2
20260904234503 93 40 0.9 2.6 0.00 0.00 0.00 18 1015.2
20260904234003 93 127 0.0 2.6 0.00 0.00 0.00 18 1015.1
20260904233504 93 74 1.7 2.6 0.00 0.00 0.00 17 1015.1
20260904233006 93 24 1.7 2.6 0.00 0.00 0.00 17 1015.1
20260904232506 93 351 0.9 3.5 0.00 0.00 0.00 17 1015.1
20260904232006 94 44 2.6 3.5 0.00 0.00 0.00 18 1015.0
20260904231513 94 69 0.9 3.5 0.00 0.00 0.00 18 1015.0
20260904231009 93 46 0.0 2.6 0.00 0.00 0.00 19 1015.0
20260904230502 93 119 0.0 2.6 0.00 0.00 0.00 18 1015.0
20260904230004 92 52 1.7 2.6 0.00 0.00 0.00 18 1015.1
20260904225502 92 51 0.9 1.7 0.00 0.00 0.00 18 1015.1
20260904225005 92 38 0.0 2.6 0.00 0.00 0.00 19 1015.2
20260904224508 93 59 0.0 2.6 0.00 0.00 0.00 18 1015.2
20260904224008 93 32 0.9 4.3 0.00 0.00 0.00 18 1015.2
20260904223511 94 165 0.0 4.3 0.00 0.00 0.00 18 1015.2
20260904223023 94 120 0.9 4.3 0.00 0.00 0.00 17 1015.2
20260904222507 94 66 1.7 4.3 0.00 0.00 0.00 17 1015.1
20260904222003 95 43 0.9 2.6 0.00 0.00 0.00 16 1015.1
20260904221506 95 93 0.0 1.7 0.00 0.00 0.00 16 1015.2
20260904221006 95 32 0.9 3.5 0.00 0.00 0.00 16 1015.2
20260904220508 95 145 0.9 6.1 0.00 0.00 0.00 16 1015.2
20260904220012 95 196 0.9 6.1 0.00 0.00 0.00 17 1015.2
20260904215511 95 66 0.9 3.5 0.00 0.00 0.00 16 1015.2
20260904215013 95 241 0.9 5.2 0.00 0.00 0.00 16 1015.2
20260904214503 94 158 0.9 5.2 0.00 0.00 0.00 17 1015.2
20260904214003 94 14 0.9 5.2 0.00 0.00 0.00 17 1015.2
20260904213505 94 46 2.6 6.1 0.00 0.00 0.00 18 1015.2
20260904213007 94 61 0.9 8.7 0.00 0.00 0.00 18 1015.3
20260904212506 94 35 4.3 8.7 0.00 0.00 0.00 17 1015.2
20260904212010 94 196 0.9 5.2 0.00 0.00 0.00 18 1015.3
20260904211518 94 53 0.9 5.2 0.00 0.00 0.00 17 1015.4
20260904211013 94 169 1.7 7.8 0.00 0.00 0.00 18 1015.3
20260904210503 94 200 1.7 7.8 0.00 0.00 0.00 18 1015.4
20260904210004 94 113 0.9 7.0 0.00 0.00 0.00 17 1015.4
20260904205504 94 51 2.6 6.1 0.00 0.00 0.00 17 1015.5
20260904205007 94 115 0.9 7.0 0.00 0.00 0.00 17 1015.6
20260904204513 94 132 0.9 7.0 0.00 0.00 0.00 17 1015.6
20260904204009 94 106 1.7 9.6 0.00 0.00 0.00 17 1015.7
20260904203511 94 134 3.5 9.6 0.00 0.00 0.00 17 1015.7
20260904203030 94 140 1.7 4.3 0.00 0.00 0.00 18 1015.9
20260904202503 94 96 0.9 8.7 0.00 0.00 0.00 18 1016.0
20260904202003 94 97 0.9 8.7 0.00 0.00 0.00 17 1016.1
20260904201506 94 146 2.6 8.7 0.00 0.00 0.00 17 1016.3
20260904201008 93 100 1.7 7.8 0.00 0.00 0.00 17 1016.3
20260904200509 93 77 1.7 7.8 0.00 0.00 0.00 17 1016.3
20260904200037 93 95 0.9 5.2 0.00 0.00 0.00 17 1016.3
20260904195512 93 129 1.7 5.2 0.00 0.00 0.00 16 1016.4
20260904195019 93 67 1.7 5.2 0.00 0.00 0.00 17 1016.4
20260904194503 93 134 1.7 7.0 0.00 0.00 0.00 17 1016.4
20260904194009 94 79 1.7 7.0 0.00 0.00 0.00 16 1016.4
20260904193505 93 176 1.7 5.2 0.00 0.00 0.00 16 1016.3
20260904193012 93 334 0.9 6.1 0.00 0.00 0.00 17 1016.4
20260904192511 92 153 1.7 6.1 0.00 0.00 0.00 18 1016.4
20260904192012 92 173 0.9 4.3 0.00 0.00 0.00 17 1016.4
20260904191525 92 144 1.7 4.3 0.00 0.00 0.00 18 1016.5
20260904191014 92 115 1.7 6.1 0.00 0.00 0.00 18 1016.5
20260904190504 92 136 1.7 6.1 0.00 0.00 0.00 19 1016.6
20260904190004 91 157 1.7 7.0 0.00 0.00 0.00 19 1016.6
20260904185504 91 68 2.6 7.0 0.00 0.00 0.00 19 1016.6
20260904185008 91 232 1.7 7.0 0.00 0.00 0.00 19 1016.6
20260904184517 91 133 1.7 7.0 0.00 0.00 0.00 19 1016.7
20260904184016 90 175 1.7 7.0 0.00 0.00 0.00 20 1016.8
20260904183513 90 61 0.9 8.7 0.00 0.00 0.00 20 1016.9
20260904183028 89 24 1.7 8.7 0.00 0.00 0.00 20 1017.1
20260904182502 90 15 2.6 7.8 0.00 0.00 0.00 20 1017.2
20260904182009 90 23 0.9 4.3 0.00 0.00 0.00 20 1017.3
20260904181507 90 129 1.7 6.1 0.00 0.00 0.00 20 1017.3
20260904181007 90 222 0.9 6.1 0.00 0.00 0.00 20 1017.3
20260904180511 89 206 0.9 3.5 0.00 0.00 0.00 22 1017.4
20260904180024 89 209 0.9 4.3 0.00 0.00 0.00 22 1017.4
20260904175513 88 192 1.7 4.3 0.00 0.00 0.00 22 1017.4
20260904175014 87 146 1.7 4.3 0.00 0.00 0.00 22 1017.4
20260904174505 87 45 0.9 4.3 0.00 0.00 0.00 24 1017.5
20260904174005 87 36 0.9 7.0 0.00 0.00 0.00 25 1017.5
20260904173506 86 84 1.7 7.0 0.00 0.00 0.00 25 1017.6
20260904173011 86 98 2.6 5.2 0.00 0.00 0.00 25 1017.5
20260904172514 86 324 1.7 4.3 0.00 0.00 0.00 26 1017.5
20260904172013 85 352 0.9 4.3 0.00 0.00 0.00 27 1017.5
20260904171550 84 327 0.9 3.5 0.00 0.00 0.00 29 1017.7
20260904171014 84 34 1.7 4.3 0.00 0.00 0.00 29 1017.7
20260904170503 83 323 0.9 4.3 0.00 0.00 0.00 28 1017.7
20260904170007 83 319 0.9 3.5 0.00 0.00 0.00 29 1017.7
20260904165508 82 59 1.7 5.2 0.00 0.00 0.00 30 1017.8
20260904165010 82 49 0.9 5.2 0.00 0.00 0.00 32 1017.9
20260904164518 81 5 0.9 3.5 0.00 0.00 0.00 32 1017.8
20260904164017 81 24 1.7 3.5 0.00 0.00 0.00 33 1017.9
20260904163514 80 38 0.9 3.5 0.00 0.00 0.00 32 1018.0
20260904163046 80 116 0.9 2.6 0.00 0.00 0.00 31 1018.0
20260904162509 79 349 0.9 3.5 0.00 0.00 0.00 31 1018.1
20260904162004 79 66 0.9 3.5 0.00 0.00 0.00 33 1018.1
20260904161514 78 38 0.9 2.6 0.00 0.00 0.00 34 1018.1
20260904161011 78 65 0.0 2.6 0.00 0.00 0.00 34 1018.0
20260904160510 77 340 0.9 2.6 0.00 0.00 0.00 33 1018.0
20260904160029 77 5 0.9 2.6 0.00 0.00 0.00 34 1018.0
20260904155516 76 34 0.9 2.6 0.00 0.00 0.00 35 1018.0
20260904155013 76 327 0.0 3.5 0.00 0.00 0.00 35 1018.0
20260904154509 76 42 1.7 3.5 0.00 0.00 0.00 35 1017.9
20260904154009 75 331 1.7 3.5 0.00 0.00 0.00 35 1017.9
20260904153510 75 324 0.9 1.7 0.00 0.00 0.00 36 1017.9
20260904153025 74 9 0.9 2.6 0.00 0.00 0.00 36 1017.8
20260904152512 74 325 0.9 2.6 0.00 0.00 0.00 35 1017.8
20260904152003 73 37 0.9 2.6 0.00 0.00 0.00 35 1017.7
20260904151503 72 9 0.9 2.6 0.00 0.00 0.00 36 1017.7
20260904151006 71 342 0.9 1.7 0.00 0.00 0.00 36 1017.7
20260904150503 71 69 0.9 1.7 0.00 0.00 0.00 35 1017.7